This demonstration page uses our WeatherBlox Daily Observations layout. Learn more.

Left ArrowRight Arrow

38.89511, -77.03637

Hourly Observations for January 31, 2019

Temp ( °F °C ) Dew Point ( °F °C ) Humidity (%) Winds ( mph kmh ) Pressure ( in mb ) Visibility ( mi km ) Precip ( " mm )
12:52 am 00:52 Clear 11 -11.7 -11 -23.9 36 36 NNW 10 17 30.37 1028 10 16 0.00 0.00
1:52 am 01:52 Clear 11 -11.7 -10 -23.3 38 38 NNW 7 11 30.37 1029 10 16 0.00 0.00
2:52 am 02:52 Clear 11 -11.7 -10 -23.3 38 38 WNW 5 7 30.40 1030 10 16 0.00 0.00
3:52 am 03:52 Clear 11 -11.7 -11 -23.9 36 36 NNW 8 13 30.42 1030 10 16 0.00 0.00
4:52 am 04:52 Clear 10 -12.2 -11 -23.9 37 37 NNW 7 11 30.43 1030 10 16 0.00 0.00
5:52 am 05:52 Clear 10 -12.2 -11 -23.9 37 37 N 9 15 30.44 1031 10 16 0.00 0.00
6:52 am 06:52 Clear 10 -12.2 -11 -23.9 37 37 NNW 9 15 30.47 1032 10 16 0.00 0.00
7:52 am 07:52 Sunny 12 -11.1 -11 -23.9 34 34 NNW 9 15 30.49 1033 10 16 0.00 0.00
8:52 am 08:52 Sunny 15 -9.4 -13 -25 27 27 NNW 8 13 30.51 1033 10 16 0.00 0.00
9:52 am 09:52 Sunny 17 -8.3 -12 -24.4 26 26 NW 10 17 30.51 1033 10 16 0.00 0.00
10:52 am 10:52 Sunny 19 -7.2 -13 -25 23 23 W 8 13 30.52 1034 10 16 0.00 0.00
11:52 am 11:52 Sunny 20 -6.7 -15 -26.1 20 20 VRB 3 6 30.49 1032 10 16 0.00 0.00
12:52 pm 12:52 Partly Cloudy 22 -5.6 -14 -25.6 19 19 WSW 7 11 30.45 1031 10 16 0.00 0.00
1:52 pm 13:52 Partly Cloudy 24 -4.4 -11 -23.9 20 20 SSW 9 15 30.43 1031 10 16 0.00 0.00
2:52 pm 14:52 Partly Cloudy 24 -4.4 -11 -23.9 20 20 S 10 17 30.42 1030 10 16 0.00 0.00
3:52 pm 15:52 Partly Cloudy 24 -4.4 -9 -22.8 22 22 WSW 6 9 30.42 1030 10 16 0.00 0.00
4:52 pm 16:52 Partly Cloudy 24 -4.4 -6 -21.1 26 26 SSW 7 11 30.41 1030 10 16 0.00 0.00
5:52 pm 17:52 Partly Cloudy 23 -5 -5 -20.6 29 29 S 3 6 30.41 1030 10 16 0.00 0.00
6:52 pm 18:52 Mostly Clear 23 -5 -4 -20 30 30 Calm 30.41 1030 10 16 0.00 0.00
7:52 pm 19:52 Mostly Clear 23 -5 -4 -20 30 30 E 3 6 30.42 1030 10 16 0.00 0.00
8:52 pm 20:52 Mostly Clear 23 -5 2 -16.7 40 40 SE 5 7 30.44 1031 10 16 0.00 0.00
9:52 pm 21:52 Clear 21 -6.1 1 -17.2 41 41 ESE 3 6 30.44 1031 10 16 0.00 0.00
10:52 pm 22:52 Partly Cloudy 20 -6.7 4 -15.6 50 50 ENE 7 11 30.45 1031 10 16 0.00 0.00
11:52 pm 23:52 Partly Cloudy 20 -6.7 5 -15 52 52 ENE 8 13 30.43 1031 10 16 0.00 0.00

Powered by AerisWeather